Weather History for Washington, MO

Change the Weather History Date:

Friday, November 22, 2013

  Actual Average (KSTL) Record (KSTL)
Temperature  
Mean Temperature 42 °F 44 °F  
Max Temperature 50 °F 52 °F 77 °F (1900)
Min Temperature 32 °F 35 °F 10 °F (1880)
Degree Days  
Heating Degree Days 24 21  
Month to date heating degree days 361  
Since 1 July heating degree days 637  
Cooling Degree Days 0 0  
Month to date cooling degree days 0  
Year to date cooling degree days 1642  
Moisture  
Dew Point 36 °F    
Average Humidity 94    
Maximum Humidity 100    
Minimum Humidity 87    
Precipitation  
Precipitation 0.00 in 0.14 in 2.28 in (1963)
Month to date precipitation 2.86  
Year to date precipitation 37.07  
Snow  
Snow 0.00 in 0.10 in 2.30 in (1941)
Month to date snowfall 0.4  
Since 1 July snowfall 0.4  
Since 1 September snowfall 0.4  
Snow Depth -    
Sea Level Pressure  
Sea Level Pressure 30.44 in    
Wind  
Wind Speed 11 mph (NNW)    
Max Wind Speed 17 mph    
Max Gust Speed 21 mph    
Visibility 9 miles    
Events Rain    
T = Trace of Precipitation, MM = Missing Value Source: NWS Daily Summary

Daily Weather History Graph

Daily Weather History Graph

Search for Another Location

Airport:

Trip Planner

Search our weather history database for the weather conditions in past years. The results will help you decide how hot, cold, wet, or windy it might be!

Date:

Astronomy

Nov. 22, 2013 Rise Set
Actual Time 6:53 AM CST 4:46 PM CST
Civil Twilight 6:24 AM CST 5:15 PM CST
Nautical Twilight 5:52 AM CST 5:47 PM CST
Astronomical Twilight 5:20 AM CST 6:19 PM CST
Moon 9:17 PM CST (11/22) 10:38 AM CST (11/22)
Length of Visible Light 10h 50m
Length of Day
9h 52m
Waning Gibbous, 78% of the Moon is Illuminated
Nov 22
Waning Gibbous
Nov 25
Last Quarter
Dec 2
New
Dec 9
First Quarter
Dec 17
Full

Hourly Weather History & Observations

Time (CST) Temp. Windchill Dew Point Humidity Pressure Visibility Wind Dir Wind Speed Gust Speed Precip Events Conditions
12:15 AM 50.0 °F - 50.0 °F 100% 30.21 in 3.0 mi NNW 6.9 mph - N/A Rain Light Rain
12:35 AM 48.2 °F - 48.2 °F 100% 30.21 in 4.0 mi NNW 8.1 mph - N/A   Overcast
12:55 AM 48.2 °F - 48.2 °F 100% 30.23 in 7.0 mi NNW 15.0 mph - N/A   Overcast
1:15 AM 46.4 °F 41.1 °F 46.4 °F 100% 30.24 in 7.0 mi NNW 11.5 mph - N/A   Overcast
1:35 AM 46.4 °F 40.7 °F 46.4 °F 100% 30.25 in 5.0 mi NNW 12.7 mph - N/A   Overcast
1:55 AM 44.6 °F 38.4 °F 44.6 °F 100% 30.26 in 5.0 mi NNW 12.7 mph - N/A   Overcast
2:15 AM 44.6 °F 39.7 °F 44.6 °F 100% 30.27 in 3.0 mi NNW 9.2 mph - N/A   Overcast
2:35 AM 44.6 °F 38.1 °F 44.6 °F 100% 30.27 in 5.0 mi NNW 13.8 mph - N/A   Overcast
2:55 AM 42.8 °F 34.8 °F 42.8 °F 100% 30.28 in 3.0 mi NNW 17.3 mph - N/A   Overcast
3:15 AM 42.8 °F 36.2 °F 42.8 °F 100% 30.28 in 5.0 mi NNW 12.7 mph - N/A   Overcast
3:35 AM 41.0 °F 32.8 °F 41.0 °F 100% 30.29 in 8.0 mi NW 16.1 mph - N/A   Overcast
3:55 AM 39.2 °F 31.2 °F 39.2 °F 100% 30.31 in 10.0 mi NNW 13.8 mph 18.4 mph N/A   Overcast
4:15 AM 39.2 °F 31.2 °F 39.2 °F 100% 30.32 in 10.0 mi NNW 13.8 mph - N/A   Overcast
4:35 AM 39.2 °F 30.2 °F 39.2 °F 100% 30.33 in 10.0 mi NNW 17.3 mph 20.7 mph N/A   Overcast
4:55 AM 37.4 °F 30.3 °F 37.4 °F 100% 30.34 in 3.0 mi NNW 10.4 mph - N/A   Overcast
5:15 AM 37.4 °F 29.3 °F 37.4 °F 100% 30.35 in 6.0 mi NNW 12.7 mph - N/A   Overcast
5:35 AM 37.4 °F 29.3 °F 37.4 °F 100% 30.36 in 6.0 mi NNW 12.7 mph - N/A   Overcast
5:55 AM 37.4 °F 29.3 °F 37.4 °F 100% 30.37 in 10.0 mi NNW 12.7 mph - N/A   Overcast
6:15 AM 37.4 °F 29.3 °F 37.4 °F 100% 30.38 in 10.0 mi NW 12.7 mph - N/A   Overcast
6:35 AM 37.4 °F 28.5 °F 37.4 °F 100% 30.39 in 10.0 mi NNW 15.0 mph - N/A   Overcast
6:55 AM 35.6 °F 27.5 °F 35.6 °F 100% 30.40 in 10.0 mi NW 11.5 mph - N/A   Overcast
7:15 AM 35.6 °F 27.1 °F 35.6 °F 100% 30.41 in 10.0 mi NW 12.7 mph - N/A   Overcast
7:35 AM 35.6 °F 28.0 °F 35.6 °F 100% 30.42 in 10.0 mi NW 10.4 mph - N/A   Overcast
7:55 AM 35.6 °F 26.2 °F 35.6 °F 100% 30.43 in 10.0 mi NNW 15.0 mph - N/A   Overcast
8:15 AM 35.6 °F 26.2 °F 35.6 °F 100% 30.43 in 10.0 mi NNW 15.0 mph - N/A   Overcast
8:35 AM 35.6 °F 25.5 °F 35.6 °F 100% 30.44 in 9.0 mi NW 17.3 mph - N/A   Overcast
8:55 AM 35.6 °F 27.1 °F 35.6 °F 100% 30.44 in 8.0 mi NNW 12.7 mph 17.3 mph N/A   Overcast
9:15 AM 35.6 °F 25.5 °F 35.6 °F 100% 30.45 in 9.0 mi NNW 17.3 mph - N/A   Overcast
9:35 AM 35.6 °F 26.6 °F 35.6 °F 100% 30.47 in 9.0 mi NNW 13.8 mph - N/A   Overcast
9:55 AM 35.6 °F 27.5 °F 35.6 °F 100% 30.48 in 10.0 mi NNW 11.5 mph 18.4 mph N/A   Overcast
10:15 AM 35.6 °F 27.1 °F 35.6 °F 100% 30.49 in 9.0 mi NNW 12.7 mph 20.7 mph N/A   Overcast
10:35 AM 35.6 °F 27.5 °F 35.6 °F 100% 30.49 in 10.0 mi NNW 11.5 mph - N/A   Overcast
10:55 AM 35.6 °F 27.1 °F 35.6 °F 100% 30.49 in 10.0 mi NNW 12.7 mph - N/A   Overcast
11:35 AM 35.6 °F 27.5 °F 33.8 °F 93% 30.48 in 10.0 mi NNW 11.5 mph - N/A   Overcast
11:55 AM 35.6 °F 28.6 °F 33.8 °F 93% 30.48 in 10.0 mi NNW 9.2 mph - N/A   Overcast
12:15 PM 35.6 °F 27.5 °F 33.8 °F 93% 30.47 in 10.0 mi NNW 11.5 mph - N/A   Overcast
12:35 PM 35.6 °F 27.1 °F 33.8 °F 93% 30.45 in 10.0 mi NNW 12.7 mph - N/A   Overcast
12:55 PM 35.6 °F 28.6 °F 33.8 °F 93% 30.47 in 10.0 mi NNW 9.2 mph - N/A   Overcast
1:15 PM 35.6 °F 27.5 °F 33.8 °F 93% 30.46 in 10.0 mi NNW 11.5 mph - N/A   Overcast
1:35 PM 37.4 °F 29.8 °F 33.8 °F 87% 30.46 in 10.0 mi NW 11.5 mph - N/A   Overcast
1:55 PM 37.4 °F 30.3 °F 33.8 °F 87% 30.45 in 10.0 mi NNW 10.4 mph - N/A   Overcast
2:15 PM 37.4 °F 29.8 °F 33.8 °F 87% 30.45 in 10.0 mi NNW 11.5 mph - N/A   Overcast
2:35 PM 37.4 °F 29.8 °F 33.8 °F 87% 30.46 in 10.0 mi North 11.5 mph - N/A   Overcast
2:55 PM 37.4 °F 29.3 °F 33.8 °F 87% 30.48 in 10.0 mi NNW 12.7 mph - N/A   Overcast
3:15 PM 37.4 °F 28.9 °F 33.8 °F 87% 30.49 in 10.0 mi NNW 13.8 mph 18.4 mph N/A   Overcast
3:35 PM 35.6 °F 27.1 °F 32.0 °F 87% 30.51 in 10.0 mi North 12.7 mph - N/A   Overcast
3:55 PM 35.6 °F 25.5 °F 32.0 °F 87% 30.52 in 10.0 mi NW 17.3 mph - N/A   Overcast
4:15 PM 35.6 °F 25.5 °F 32.0 °F 87% 30.52 in 10.0 mi NNW 17.3 mph - N/A   Overcast
4:35 PM 35.6 °F 27.1 °F 32.0 °F 87% 30.53 in 10.0 mi NNW 12.7 mph - N/A   Overcast
4:55 PM 35.6 °F 29.9 °F 32.0 °F 87% 30.53 in 10.0 mi North 6.9 mph - N/A   Overcast
5:15 PM 35.6 °F 29.9 °F 32.0 °F 87% 30.54 in 10.0 mi NNW 6.9 mph - N/A   Overcast
5:35 PM 35.6 °F 31.7 °F 32.0 °F 87% 30.55 in 10.0 mi NNW 4.6 mph - N/A   Overcast
5:55 PM 35.6 °F 29.2 °F 32.0 °F 87% 30.54 in 10.0 mi North 8.1 mph - N/A   Overcast
6:15 PM 35.6 °F 29.9 °F 32.0 °F 87% 30.54 in 10.0 mi North 6.9 mph - N/A   Overcast
6:35 PM 35.6 °F 29.2 °F 32.0 °F 87% 30.53 in 10.0 mi NNW 8.1 mph - N/A   Overcast
6:55 PM 35.6 °F 29.2 °F 32.0 °F 87% 30.53 in 10.0 mi North 8.1 mph - N/A   Overcast
7:15 PM 35.6 °F 30.7 °F 32.0 °F 87% 30.53 in 10.0 mi North 5.8 mph - N/A   Overcast
7:35 PM 35.6 °F 29.9 °F 32.0 °F 87% 30.53 in 10.0 mi NNW 6.9 mph - N/A   Overcast
7:55 PM 35.6 °F 30.7 °F 32.0 °F 87% 30.53 in 10.0 mi North 5.8 mph - N/A   Overcast
8:15 PM 35.6 °F 30.7 °F 32.0 °F 87% 30.53 in 10.0 mi NNW 5.8 mph - N/A   Overcast
8:35 PM 35.6 °F 32.8 °F 32.0 °F 87% 30.53 in 10.0 mi NW 3.5 mph - N/A   Overcast
8:55 PM 35.6 °F 32.8 °F 32.0 °F 87% 30.53 in 10.0 mi NW 3.5 mph - N/A   Overcast
9:15 PM 35.6 °F 31.7 °F 32.0 °F 87% 30.53 in 10.0 mi NNW 4.6 mph - N/A   Overcast
9:35 PM 35.6 °F 31.7 °F 32.0 °F 87% 30.54 in 10.0 mi NNW 4.6 mph - N/A   Overcast
9:55 PM 35.6 °F 29.9 °F 32.0 °F 87% 30.53 in 10.0 mi NNW 6.9 mph - N/A   Overcast
10:15 PM 35.6 °F 32.8 °F 32.0 °F 87% 30.53 in 10.0 mi NNW 3.5 mph - N/A   Overcast
10:35 PM 35.6 °F 30.7 °F 32.0 °F 87% 30.53 in 10.0 mi NNW 5.8 mph - N/A   Overcast
10:55 PM 35.6 °F 29.2 °F 32.0 °F 87% 30.52 in 10.0 mi NNW 8.1 mph - N/A   Overcast
11:15 PM 33.8 °F 26.4 °F 32.0 °F 93% 30.53 in 10.0 mi North 9.2 mph - N/A   Mostly Cloudy
11:35 PM 33.8 °F 27.0 °F 30.2 °F 87% 30.54 in 10.0 mi NNW 8.1 mph - N/A   Mostly Cloudy
11:55 PM 32.0 °F 25.6 °F 30.2 °F 93% 30.54 in 10.0 mi North 6.9 mph - N/A   Mostly Cloudy